Vance Air Force Base
KEND : rendu visible

Aérodrome :











RETROUVEZ-NOUS SUR...

 
LOGIN :

S'inscrire | Disclaimer

   EN    FR    IT 

 









Légende :    VFR   VFR Marginal   IFR   IFR Intensif   IFR Très Intensif
Visi : 
Plafond : 
>= 8 km
>= 3000ft
5 à 8 km
1000 à 3000 ft
1500m à 5 km
500 à 1000 ft
800 à 1500m
200 à 500 ft
< 800m
< 200 ft
Symboles :   Orages  Brouillard  Fortes neiges  Fortes précipitations  Vent > 20 kt






- Altitude de l'aérodrome : 1307 ft


KEND - Vance Air Force Base

DERNIER METAR :
  • 050056Z AUTO 00000KT 10SM OVC013 04/04 A3005 RMK AO2 CIG 012 RWY17C SLP187 T00420042 $

METARs EXPIRÉS :
  • 042356Z AUTO 08004KT 10SM OVC014 05/05 A3004 RMK AO2 CIG 013 RWY17C SLP183 T00470046 10051 20022 56010 $
  • 042256Z AUTO 11004KT 10SM OVC014 05/05 A3005 RMK AO2 CIG 013 RWY17C SLP187 T00480045 $

TAF TAF KEND
Valide du 04 à 02h jusqu'au 05 à 08h UTC


040200Z 0402/0508 05006KT 9999 FEW020 QNH3012INS
BECMG 0411/0412 05009KT 9999 SCT020 QNH3010INS
BECMG 0500/0501 09011KT 9999 SCT015 QNH3004INS TX07/0423Z TN00/0412Z LAST NO AMDS AFT 0403 NEXT 0517



MET'MAP, la Météo Aéronautique d'un coup d'oeil ! - Copyright ORBIFLY Décembre 2007 - Disclaimer

ORBIFLY MET'MAP TEAM :

Programmation & Développement : Alexandra Zaïnal
Sur une idée originale de : Baudouin d'Aumeries
Assistance à la programmation : Marc-Olivier Méhu
Soutien technique & logistique : Manuel Goepfert

Contact : metmap@orbifly.com




SOURCES & CREDITS :

   NOAA       Earth
Advisory